Tracking 29606 objects as of 18-Sep-2024
HD Live streaming from Space Station
objects crossing your sky now

ARIANE 2 DEB

Track ARIANE 2 DEB now!
10-day predictions


NORAD ID: 33584
Int'l Code: 1989-027E
Perigee: 443.5 km
Apogee: 21,654.1 km
Inclination: 5.8 °
Period: 381.4 minutes
Semi major axis: 17419 km
RCS: 0.3666 m2 (medium)
Launch date: April 2, 1989
Source: France (FR)
Launch site: FRENCH GUIANA (FRGUI)

Note: This is SATELLITE DEBRIS
Your satellite tracking list
Your tracking list is empty




NASA's NSSDC Master Catalog

Two Line Element Set (TLE):
1 33584U 89027E   24261.89830254  .00002756  00000-0  42978-2 0  9995
2 33584   5.8167 170.0484 6088047 113.4709 319.5639  3.77605429337196
Source of the keplerian elements: AFSPC